Regional Weather Roundup
Issued by NWS Burlington, VT

Home | Current Version | Previous Version | Text Only | Print | Product List | Glossary On
Versions: 1 2 3 4 5 6 7 8 9 10 11 12 13 14 15 16 17 18 19 20 21 22 23 24 25 26 27 28 29 30 31 32 33 34 35 36 37 38 39 40 41 42 43 44 45 46 47 48 49 50
661
ASUS41 KBTV 221730
RWRBTV
VERMONT REGIONAL WEATHER ROUNDUP
NATIONAL WEATHER SERVICE BURLINGTON VT
100 PM EDT MON MAY 22 2017

NOTE: "FAIR" INDICATES FEW OR NO CLOUDS BELOW 12,000 FEET WITH NO
SIGNIFICANT WEATHER AND/OR OBSTRUCTIONS TO VISIBILITY.

* THESE REPORTS ARE NOT UNDER NWS QUALITY CONTROL AND/OR DO NOT
  REPORT WEATHER SUCH AS PRECIPITATION AND FOG.

VTZ001>019-221800-
_____VERMONT_____


CITY           SKY/WX    TMP DP  RH WIND       PRES   REMARKS
BURLINGTON     CLOUDY    52  47  83 S10       30.01F
MONTPELIER     LGT RAIN  48  46  93 S13       30.07F
MORRISVILLE    LGT RAIN  49  46  90 SE6       30.04F
ST. JOHNSBURY*   N/A     52  42  69 MISG      30.05F
LYNDONVILLE*   LGT RAIN  49  43  78 SE9G17    30.07F
MIDDLEBURY*    RAIN      51  49  92 S3        30.01F
RUTLAND*       LGT RAIN  53  48  83 SE13      30.03F
SPRINGFIELD    CLOUDY    51  44  77 S9        30.09F
HIGHGATE*      CLOUDY    52  48  88 S7        29.99F
NEWPORT*       LGT RAIN  49  44  83 S13G21    30.04S
BENNINGTON     CLOUDY    56  47  71 S8        30.04F
SUTTON*          N/A     46 N/A N/A MISG        N/A
ISLAND POND*     N/A     52 N/A N/A S8          N/A
GALLUP MILLS*    N/A     50 N/A N/A MISG        N/A
UNION VILLAGE*   N/A     52 N/A N/A MISG        N/A

_____LAKE CHAMPLAIN_____


CITY           SKY/WX    TMP DP  RH WIND       PRES   REMARKS
BURTON ISLAND*   N/A     52  46  82 S21         N/A
COLCHESTER RF*   N/A     50  46  87 S22         N/A
DIAMOND ISL*     N/A     54  46  76 SE16G23     N/A

$$

NYZ007-026>031-035-052-083-087-221800-
_____NORTHERN NEW YORK_____


CITY           SKY/WX    TMP DP  RH WIND       PRES   REMARKS
PLATTSBURGH    CLOUDY    51  47  86 SE15G21   29.98F
SARANAC LAKE   LGT RAIN  52  52 100 CALM      29.92F FOG
MASSENA        CLOUDY    60  57  89 CALM      29.92F
OGDENSBURG*    CLOUDY    61  54  78 S7        29.90F
POTSDAM*       CLOUDY    61  57  88 SW9       29.92S
STARK FALLS*     N/A     55 N/A N/A S8          N/A
WATERTOWN      CLOUDY    59  55  87 VRB7      29.91S
FT DRUM        CLOUDY    56  53  89 SE9       29.91F
ALBANY         CLOUDY    60  49  66 S12G28    30.01F

$$
NHZ002-005-011-221800-
_____NEW HAMPSHIRE_____


CITY           SKY/WX    TMP DP  RH WIND       PRES   REMARKS
LEBANON        CLOUDY    53  44  71 S8        30.08F
KEENE          CLOUDY    54  45  71 S9        30.10F
MT WASHINGTON  FOG       46  46 100 W23         N/A  VSB 1/16
PLYMOUTH       CLOUDY    51  43  74 SE3       30.11F
WHITEFIELD     CLOUDY    56  42  59 VRB3      30.04F

$$

_____REGIONAL QUEBEC LOCATIONS_____


CITY           SKY/WX    TMP DP  RH WIND       PRES   REMARKS
MONTREAL       CLOUDY    55  52  88 SE14G21   29.92F
QUEBEC CITY    CLOUDY    55  48  76 E9        30.02F
SHERBROOKE     CLOUDY    54  46  76 S12G18    30.00F

_____REGIONAL ONTARIO LOCATIONS_____


CITY           SKY/WX    TMP DP  RH WIND       PRES   REMARKS
OTTAWA         CLOUDY    57  55  94 SE8       29.89F

______KEY______
VSB  - VISIBILITY IN MILES
WCI  - WIND CHILL INDEX
HX   - HEAT INDEX
$$
NNNN




USA.gov is the U.S. government's official web portal to all federal, state and local government web resources and services.